TimeEST,TemperatureF,Dew PointF,Humidity,Sea Level PressureIn,VisibilityMPH,Wind Direction,Wind SpeedMPH,Gust SpeedMPH,PrecipitationIn,Events,Conditions,WindDirDegrees,DateUTC
12:52 AM,27.0,24.1,89,29.91,7.0,Calm,Calm,-,N/A,,Clear,0,2014-01-18 05:52:00
1:52 AM,27.0,24.1,89,29.91,7.0,Calm,Calm,-,N/A,,Clear,0,2014-01-18 06:52:00
2:52 AM,27.0,24.1,89,29.91,8.0,Calm,Calm,-,N/A,,Clear,0,2014-01-18 07:52:00
3:52 AM,27.0,24.1,89,29.88,6.0,Calm,Calm,-,N/A,,Mostly Cloudy,0,2014-01-18 08:52:00
4:52 AM,27.0,24.1,89,29.86,6.0,Calm,Calm,-,N/A,,Mostly Cloudy,0,2014-01-18 09:52:00
5:52 AM,27.0,25.0,92,29.87,7.0,Calm,Calm,-,N/A,,Overcast,0,2014-01-18 10:52:00
6:52 AM,28.0,25.0,88,29.84,8.0,Calm,Calm,-,N/A,,Overcast,0,2014-01-18 11:52:00
7:52 AM,28.0,25.0,88,29.81,6.0,Calm,Calm,-,N/A,,Overcast,0,2014-01-18 12:52:00
8:52 AM,28.9,25.0,85,29.81,8.0,Calm,Calm,-,N/A,,Overcast,0,2014-01-18 13:52:00
9:13 AM,28.9,25.0,85,29.76,9.0,Calm,Calm,-,N/A,,Overcast,0,2014-01-18 14:13:00
9:48 AM,30.2,24.8,80,29.77,1.8,North,3.5,-,0.00,Snow,Light Snow,10,2014-01-18 14:48:00
9:52 AM,30.0,26.1,85,29.82,1.5,Variable,3.5,-,0.00,Snow,Light Snow,0,2014-01-18 14:52:00
9:58 AM,30.0,26.1,85,29.76,3.0,Calm,Calm,-,0.00,Snow,Light Snow,0,2014-01-18 14:58:00
10:09 AM,30.0,26.1,85,29.75,1.8,Calm,Calm,-,0.00,Snow,Light Snow,0,2014-01-18 15:09:00
10:25 AM,30.0,27.0,88,29.74,1.0,Calm,Calm,-,0.00,Snow,Light Snow,0,2014-01-18 15:25:00
10:34 AM,30.0,27.0,88,29.74,0.5,Calm,Calm,-,0.01,Fog-Snow,Snow,0,2014-01-18 15:34:00
10:46 AM,30.2,26.6,86,29.73,1.0,Variable,3.5,-,0.01,Snow,Light Snow,0,2014-01-18 15:46:00
10:47 AM,30.0,27.0,88,29.78,1.0,Variable,3.5,-,0.01,Snow,Light Snow,0,2014-01-18 15:47:00
10:51 AM,30.0,27.0,88,29.73,1.2,North,4.6,-,0.00,Snow,Light Snow,360,2014-01-18 15:51:00
11:01 AM,30.0,27.0,88,29.72,1.8,Variable,4.6,-,0.00,Snow,Light Snow,0,2014-01-18 16:01:00
11:04 AM,30.0,27.0,88,29.72,2.0,North,4.6,-,0.00,Snow,Light Snow,10,2014-01-18 16:04:00
11:29 AM,30.0,26.1,85,29.70,3.0,North,4.6,-,0.00,Snow,Light Snow,350,2014-01-18 16:29:00
11:52 AM,28.9,26.1,89,29.73,4.0,North,-9999.0,-,0.00,Snow,Light Snow,0,2014-01-18 16:52:00
12:04 PM,30.0,26.1,85,29.66,3.0,North,3.5,-,0.00,Snow,Light Snow,10,2014-01-18 17:04:00
12:37 PM,30.0,27.0,88,29.63,4.0,Variable,4.6,-,0.00,,Overcast,0,2014-01-18 17:37:00
12:52 PM,30.0,27.0,88,29.68,4.0,Calm,Calm,-,0.00,,Overcast,0,2014-01-18 17:52:00
1:09 PM,30.0,27.0,88,29.62,1.8,Variable,3.5,-,0.00,Snow,Light Snow,0,2014-01-18 18:09:00
1:13 PM,30.0,27.0,88,29.62,1.0,Calm,Calm,-,0.01,Snow,Light Snow,0,2014-01-18 18:13:00
1:35 PM,30.0,27.0,88,29.61,1.2,Variable,4.6,-,0.01,Snow,Light Snow,0,2014-01-18 18:35:00
1:52 PM,30.0,27.0,88,29.66,1.0,Variable,5.8,-,0.01,Snow,Light Snow,0,2014-01-18 18:52:00
2:03 PM,30.0,28.0,92,29.61,0.8,Variable,3.5,-,0.01,Snow,Light Snow,0,2014-01-18 19:03:00
2:10 PM,30.9,28.0,89,29.61,1.0,Calm,Calm,-,0.01,Snow,Light Snow,0,2014-01-18 19:10:00
2:19 PM,30.9,28.0,89,29.61,1.2,North,4.6,-,0.01,Snow,Light Snow,360,2014-01-18 19:19:00
2:52 PM,30.9,28.0,89,29.66,1.2,Variable,4.6,-,0.01,Snow,Light Snow,0,2014-01-18 19:52:00
3:07 PM,30.9,28.0,89,29.61,1.2,North,4.6,-,0.00,Snow,Light Snow,10,2014-01-18 20:07:00
3:24 PM,30.9,28.0,89,29.61,1.5,Variable,5.8,-,0.00,Snow,Light Snow,0,2014-01-18 20:24:00
3:36 PM,30.9,28.0,89,29.61,1.2,North,3.5,-,0.00,Snow,Light Snow,350,2014-01-18 20:36:00
3:45 PM,30.9,28.0,89,29.61,1.0,Calm,Calm,-,0.00,Snow,Light Snow,0,2014-01-18 20:45:00
3:52 PM,30.9,28.0,89,29.66,1.0,Variable,3.5,-,0.00,Snow,Light Snow,0,2014-01-18 20:52:00
3:59 PM,30.9,28.0,89,29.61,0.8,Variable,3.5,-,0.00,Snow,Light Snow,0,2014-01-18 20:59:00
4:30 PM,30.0,28.0,92,29.61,0.5,North,4.6,-,0.02,Fog-Snow,Snow,360,2014-01-18 21:30:00
4:52 PM,30.0,28.0,92,29.66,1.0,Variable,3.5,-,0.03,Snow,Light Snow,0,2014-01-18 21:52:00
5:09 PM,30.0,28.0,92,29.62,1.0,Calm,Calm,-,0.01,Snow,Light Snow,0,2014-01-18 22:09:00
5:52 PM,30.0,28.0,92,29.68,1.0,Calm,Calm,-,0.02,Snow,Light Snow,0,2014-01-18 22:52:00
6:09 PM,30.0,28.0,92,29.63,1.0,Variable,3.5,-,0.01,Snow,Light Snow,0,2014-01-18 23:09:00
6:25 PM,30.0,28.0,92,29.63,0.8,Variable,3.5,-,0.02,Snow,Light Snow,0,2014-01-18 23:25:00
6:35 PM,30.0,28.0,92,29.63,1.0,Variable,3.5,-,0.03,Snow,Light Snow,0,2014-01-18 23:35:00
6:44 PM,30.0,28.0,92,29.63,1.0,Variable,4.6,-,0.03,Snow,Light Snow,0,2014-01-18 23:44:00
6:52 PM,30.0,27.0,88,29.69,1.2,North,4.6,-,0.04,Snow,Light Snow,360,2014-01-18 23:52:00
7:03 PM,30.0,27.0,88,29.64,1.0,Variable,5.8,-,0.00,Snow,Light Snow,0,2014-01-19 00:03:00
7:23 PM,30.0,27.0,88,29.64,0.8,Calm,Calm,-,0.01,Snow,Light Snow,0,2014-01-19 00:23:00
7:44 PM,30.0,27.0,88,29.64,1.0,Variable,3.5,-,0.02,Snow,Light Snow,0,2014-01-19 00:44:00
7:52 PM,28.9,27.0,92,29.69,0.8,Variable,4.6,-,0.03,Snow,Light Snow,0,2014-01-19 00:52:00
8:03 PM,28.9,27.0,92,29.64,1.0,Variable,4.6,-,0.00,Snow,Light Snow,0,2014-01-19 01:03:00
8:11 PM,30.0,27.0,88,29.64,1.2,Variable,3.5,-,0.00,Snow,Light Snow,0,2014-01-19 01:11:00
8:14 PM,28.9,27.0,92,29.64,1.5,Variable,3.5,-,0.00,Snow,Light Snow,0,2014-01-19 01:14:00
8:44 PM,30.0,27.0,88,29.65,2.0,Calm,Calm,-,0.01,Snow,Light Snow,0,2014-01-19 01:44:00
8:52 PM,30.0,27.0,88,29.70,3.0,Calm,Calm,-,0.01,Snow,Light Snow,0,2014-01-19 01:52:00
9:30 PM,30.0,27.0,88,29.64,6.0,Calm,Calm,-,0.00,,Overcast,0,2014-01-19 02:30:00
9:52 PM,30.0,27.0,88,29.71,9.0,Calm,Calm,-,0.00,,Overcast,0,2014-01-19 02:52:00
10:17 PM,28.9,27.0,92,29.66,7.0,Calm,Calm,-,N/A,,Overcast,0,2014-01-19 03:17:00
10:42 PM,28.9,27.0,92,29.67,1.8,Calm,Calm,-,0.00,Snow,Light Snow,0,2014-01-19 03:42:00
10:52 PM,28.9,27.0,92,29.72,1.5,Calm,Calm,-,0.00,Snow,Light Snow,0,2014-01-19 03:52:00
10:56 PM,28.9,27.0,92,29.66,1.2,Calm,Calm,-,0.01,Snow,Light Snow,0,2014-01-19 03:56:00
11:32 PM,28.9,27.0,92,29.65,1.5,Calm,Calm,-,0.01,Snow,Light Snow,0,2014-01-19 04:32:00
11:52 PM,28.9,27.0,92,29.70,1.5,Calm,Calm,-,0.02,Snow,Light Snow,0,2014-01-19 04:52:00